Torna al catalogo

STARLINK-34603

AttivoComunicazioniVLEO
NORAD 65220·PAYLOAD·🇺🇸 United States

Lanciato Aug 14, 2025 da Cape Canaveral Space Force Station

Loading…

Prossimi Passaggi (prossime 24 ore)

TLE

AggiornatoSource: CelesTrak SupGP

Epoca: Sep 14, 2026, 21:00 UTC

1 65220C 25176Y   26257.87548611 -.00002376  00000+0 -70245-4 0  2576
2 65220  53.1592 349.8011 0001161  83.3398 309.9108 15.34368343    12

Traccia STARLINK-34603 in tempo reale con AllMySat

Download on the App Store